User: anonymous   Login
Location: Newark
(17.9939°S, 31.0481°E)
Time: 01:19:06
(UTC+00:00)
Language:

S-56A Canister/Altair - Orbit

View from above orbital plane
View from above orbital plane
View from above satellite
View from above satellite

Ground track
Ground track

The orbit data is extracted from the following two-line orbital elements,

1    82U 61004B   19323.87901505 -.00000008 +00000-0 +33202-4 0  9997
2    82 038.8553 258.0875 1173666 147.3010 220.6166 12.26056168781966
Epoch (UTC): 19 November 2019 21:05:46
Eccentricity: 0.1173666
inclination: 38.8553°
perigee height: 634 km
apogee height: 2498 km
right ascension of ascending node: 258.0875°
argument of perigee: 147.3010°
revolutions per day: 12.26056168
mean anomaly at epoch: 220.6166°
orbit number at epoch: 78196

The dashed part of the orbit path shows where the satellite is in the earth's shadow,  

DLR